This demonstration page uses our WeatherBlox Daily Observations layout. Learn more.

Left ArrowRight Arrow

Hourly Observations for October 9, 2016

Temp ( °F °C ) Dew Point ( °F °C ) Humidity (%) Winds ( mph kmh ) Pressure ( in mb ) Visibility ( mi km ) Precip ( " mm )
12:54 am 00:54 Clear 50 10 42 5.6 74 74 N 3 6 30.28 1025 10 16.0934 0 0
1:54 am 01:54 Clear 47 8.3 43 6.1 86 86 Calm 30.29 1026 10 16.0934 0 0
2:54 am 02:54 Clear 48 8.9 44 6.7 86 86 N 5 7 30.3 1026 10 16.0934 0 0
3:54 am 03:54 Clear 47 8.3 43 6.1 86 86 N 6 9 30.3 1026 10 16.0934 0 0
4:54 am 04:54 Clear 46 7.8 43 6.1 89 89 N 5 7 30.31 1026 10 16.0934 0 0
5:54 am 05:54 Clear 45 7.2 42 5.6 90 90 N 6 9 30.32 1027 10 16.0934 0 0
6:54 am 06:54 Clear 43 6.1 41 5 93 93 N 3 6 30.33 1027 10 16.0934 0 0
7:54 am 07:54 Sunny 43 6.1 40 4.4 89 89 Calm 30.34 1027 10 16.0934 0 0
8:54 am 08:54 Sunny 48 8.9 44 6.7 86 86 VRB 6 9 30.34 1027 10 16.0934 0 0
9:54 am 09:54 Sunny 52 11.1 45 7.2 77 77 Calm 30.34 1027 10 16.0934 0 0
10:54 am 10:54 Sunny 58 14.4 47 8.3 67 67 SE 5 7 30.32 1027 10 16.0934 0 0
11:54 am 11:54 Sunny 66 18.9 47 8.3 50 50 SE 6 9 30.29 1026 10 16.0934 0 0
12:54 pm 12:54 Sunny 73 22.8 45 7.2 37 37 VRB 6 9 30.25 1024 10 16.0934 0 0
1:54 pm 13:54 Sunny 77 25 42 5.6 29 29 S 12 19 30.22 1023 10 16.0934 0 0
2:54 pm 14:54 Sunny 76 24.4 42 5.6 30 30 S 18 30 30.2 1023 10 16.0934 0 0
3:54 pm 15:54 Sunny 77 25 43 6.1 30 30 SSE 17 28 30.18 1022 10 16.0934 0 0
4:54 pm 16:54 Sunny 76 24.4 37 2.8 24 24 S 15 24 30.16 1022 10 16.0934 0 0
5:54 pm 17:54 Sunny 73 22.8 40 4.4 30 30 S 17 28 30.16 1021 10 16.0934 0 0
6:54 pm 18:54 Sunny 67 19.4 42 5.6 41 41 SSE 10 17 30.16 1022 10 16.0934 0 0
7:54 pm 19:54 Clear 63 17.2 42 5.6 47 47 SSE 9 15 30.17 1022 10 16.0934 0 0
8:54 pm 20:54 Clear 62 16.7 44 6.7 52 52 S 14 22 30.18 1022 10 16.0934 0 0
9:54 pm 21:54 Clear 58 14.4 46 7.8 65 65 S 9 15 30.19 1022 10 16.0934 0 0
10:54 pm 22:54 Clear 57 13.9 46 7.8 67 67 SSE 10 17 30.18 1022 10 16.0934 0 0
11:54 pm 23:54 Clear 56 13.3 45 7.2 67 67 SSE 8 13 30.17 1022 10 16.0934 0 0

Powered by AerisWeather